Weather History for KATT - May, 2012

Change the Weather History Date:

Saturday, May 12, 2012

  Actual Average Record
Temperature  
Mean Temperature 73 °F 76 °F  
Max Temperature 82 °F 86 °F 98 °F (1990)
Min Temperature 64 °F 66 °F 47 °F (1960)
Degree Days  
Heating Degree Days 0 0  
Month to date heating degree days 0 0  
Since 1 July heating degree days 1213 1537  
Cooling Degree Days 8 11  
Month to date cooling degree days 142 114  
Year to date cooling degree days 577 366  
Growing Degree Days 22 (Base 50)    
Moisture  
Dew Point 61 °F    
Average Humidity 69    
Maximum Humidity 93    
Minimum Humidity 45    
Precipitation  
Precipitation 0.00 in 0.13 in 2.96 in (2011)
Month to date precipitation 4.24 1.54  
Year to date precipitation 17.67 10.63  
Snow  
Snow 0.00 in - - ()
Month to date snowfall 0.0  
Since 1 July snowfall T  
Snow Depth 0.00 in    
Sea Level Pressure  
Sea Level Pressure 30.06 in    
Wind  
Wind Speed 5 mph (NNW)    
Max Wind Speed 10 mph    
Max Gust Speed 17 mph    
Visibility 10 miles    
Events      
T = Trace of Precipitation, MM = Missing Value Source: NWS Daily Summary

Daily Weather History Graph

Daily Weather History Graph

Search for Another Location

Airport or City:

Trip Planner

Search our weather history database for the weather conditions in past years. The results will help you decide how hot, cold, wet, or windy it might be!

Date:

Astronomy

May. 12, 2012 Rise Set
Actual Time 6:38 AM CDT 8:16 PM CDT
Civil Twilight 6:12 AM CDT 8:42 PM CDT
Nautical Twilight 5:41 AM CDT 9:14 PM CDT
Astronomical Twilight 5:08 AM CDT 9:47 PM CDT
Moon 1:39 AM CDT (5/12) 1:09 PM CDT (5/12)
Length of Visible Light 14h 30m
Length of Day
13h 37m
Waning Gibbous, 52% of the Moon is Illuminated
May 12
Waning Gibbous
May 12
Last Quarter
May 20
New
May 28
First Quarter
Jun 4
Full

Hourly Weather History & Observations

Time (CDT) Temp. Heat Index Dew Point Humidity Pressure Visibility Wind Dir Wind Speed Gust Speed Precip Events Conditions
12:51 AM 68.0 °F - 64.0 °F 87% 29.95 in 10.0 mi NW 3.5 mph - N/A   Mostly Cloudy
1:51 AM 69.1 °F - 64.9 °F 87% 29.96 in 10.0 mi Calm Calm - N/A   Overcast
2:51 AM 66.9 °F - 64.0 °F 90% 29.97 in 10.0 mi Calm Calm - N/A   Clear
3:51 AM 64.9 °F - 63.0 °F 93% 29.97 in 10.0 mi Calm Calm - N/A   Clear
4:51 AM 64.9 °F - 63.0 °F 93% 29.99 in 10.0 mi Calm Calm - N/A   Clear
5:09 AM 64.9 °F - 63.0 °F 93% 30.02 in 8.0 mi Calm Calm - N/A   Mostly Cloudy
5:51 AM 64.0 °F - 62.1 °F 93% 30.01 in 10.0 mi NW 4.6 mph - N/A   Overcast
6:25 AM 64.0 °F - 62.1 °F 93% 30.05 in 7.0 mi NNW 4.6 mph - N/A   Overcast
6:51 AM 64.0 °F - 62.1 °F 93% 30.05 in 7.0 mi North 6.9 mph - N/A   Overcast
7:16 AM 64.9 °F - 62.1 °F 90% 30.08 in 10.0 mi NNW 5.8 mph - N/A   Mostly Cloudy
7:23 AM 64.9 °F - 62.1 °F 90% 30.08 in 10.0 mi NNW 4.6 mph - N/A   Scattered Clouds
7:51 AM 66.0 °F - 63.0 °F 90% 30.09 in 10.0 mi NW 4.6 mph - N/A   Clear
8:30 AM 69.1 °F - 63.0 °F 81% 30.12 in 10.0 mi NW 4.6 mph - N/A   Mostly Cloudy
8:42 AM 69.1 °F - 62.1 °F 78% 30.13 in 10.0 mi NW 5.8 mph - N/A   Overcast
8:51 AM 68.0 °F - 61.0 °F 78% 30.11 in 10.0 mi Variable 5.8 mph - N/A   Mostly Cloudy
9:51 AM 72.0 °F - 61.0 °F 68% 30.11 in 10.0 mi North 8.1 mph - N/A   Scattered Clouds
10:51 AM 73.9 °F - 59.0 °F 59% 30.10 in 10.0 mi North 8.1 mph - N/A   Scattered Clouds
11:51 AM 75.0 °F - 59.0 °F 57% 30.09 in 10.0 mi NNW 6.9 mph - N/A   Overcast
12:51 PM 77.0 °F - 59.0 °F 54% 30.08 in 10.0 mi Variable 5.8 mph - N/A   Overcast
1:51 PM 79.0 °F - 57.9 °F 48% 30.07 in 10.0 mi Variable 5.8 mph - N/A   Mostly Cloudy
2:51 PM 80.1 °F 80.6 °F 57.9 °F 47% 30.06 in 10.0 mi Variable 4.6 mph - N/A   Mostly Cloudy
3:51 PM 81.0 °F 81.0 °F 57.0 °F 44% 30.05 in 10.0 mi Variable 6.9 mph - N/A   Mostly Cloudy
4:51 PM 79.0 °F - 57.0 °F 47% 30.04 in 10.0 mi North 8.1 mph - N/A   Mostly Cloudy
5:51 PM 75.9 °F - 57.0 °F 52% 30.05 in 10.0 mi Variable 5.8 mph - N/A   Overcast
6:51 PM 75.9 °F - 57.9 °F 54% 30.05 in 10.0 mi Variable 3.5 mph - N/A   Overcast
7:51 PM 75.0 °F - 57.9 °F 55% 30.06 in 10.0 mi NNW 4.6 mph - N/A   Partly Cloudy
8:51 PM 73.0 °F - 57.9 °F 59% 30.09 in 10.0 mi NNW 5.8 mph - N/A   Mostly Cloudy
9:51 PM 73.0 °F - 57.9 °F 59% 30.11 in 10.0 mi North 4.6 mph - N/A   Overcast
10:51 PM 72.0 °F - 60.1 °F 66% 30.12 in 10.0 mi NNE 9.2 mph 17.3 mph N/A   Overcast
11:51 PM 71.1 °F - 59.0 °F 66% 30.13 in 10.0 mi Variable 5.8 mph - N/A   Overcast